EAG5512 SPHY-SBRB

Flight info

Callsign EAG5512
Flight time 1h 4m
Altitude 35000
Route URC DCT GRAFO
Aircraft A319/M-SDE3FGHIRWY/LB1

Departure

Time 2026-05-05 00:22
Airport Andahuaylas Airport (SPHY)

Arrival

Time 2026-05-05 01:26
Airport Rio Branco-Plácido de Castro International Airport (SBRB)
Time Latitude Longitude Altitude Speed Heading
2026-05-05 00:13 -13.71267 -73.35261 11673 ft 0 kts 170°
2026-05-05 00:15 -13.71259 -73.35263 11673 ft 4 kts 163°
2026-05-05 00:15 -13.71241 -73.35275 11673 ft 4 kts 97°
2026-05-05 00:15 -13.71246 -73.35300 11673 ft 4 kts 55°
2026-05-05 00:16 -13.71260 -73.35315 11673 ft 0 kts 33°
2026-05-05 00:18 -13.71246 -73.35306 11673 ft 0 kts 33°
2026-05-05 00:18 -13.71238 -73.35302 11673 ft 0 kts 22°
2026-05-05 00:19 -13.71226 -73.35307 11670 ft 12 kts 342°
2026-05-05 00:19 -13.71246 -73.35376 11672 ft 13 kts 211°
2026-05-05 00:19 -13.71338 -73.35433 11666 ft 19 kts 211°
2026-05-05 00:19 -13.71470 -73.35519 11656 ft 26 kts 212°
2026-05-05 00:20 -13.71636 -73.35623 11647 ft 30 kts 211°
2026-05-05 00:20 -13.71814 -73.35735 11639 ft 24 kts 206°
2026-05-05 00:20 -13.71874 -73.35775 11637 ft 7 kts 322°
2026-05-05 00:20 -13.71854 -73.35766 11636 ft 1 kts 39°
2026-05-05 00:21 -13.71849 -73.35762 11641 ft 3 kts 39°
2026-05-05 00:21 -13.71804 -73.35730 11638 ft 2 kts 31°
2026-05-05 00:21 -13.71681 -73.35653 11645 ft 60 kts 32°
2026-05-05 00:21 -13.71104 -73.35284 11672 ft 134 kts 32°
2026-05-05 00:22 -13.70143 -73.34669 11879 ft 177 kts 31°
2026-05-05 00:22 -13.69082 -73.34007 12746 ft 178 kts 30°
2026-05-05 00:22 -13.68028 -73.33352 13372 ft 180 kts 30°
2026-05-05 00:22 -13.66885 -73.32657 13552 ft 202 kts 29°
2026-05-05 00:23 -13.65605 -73.31876 13761 ft 225 kts 30°
2026-05-05 00:23 -13.64199 -73.31020 14054 ft 239 kts 30°
2026-05-05 00:23 -13.62813 -73.30175 15004 ft 227 kts 30°
2026-05-05 00:23 -13.61481 -73.29314 15685 ft 228 kts 39°
2026-05-05 00:24 -13.60543 -73.28026 16211 ft 232 kts 68°
2026-05-05 00:24 -13.60307 -73.26386 16801 ft 235 kts 91°
2026-05-05 00:24 -13.60361 -73.24678 17249 ft 247 kts 91°
2026-05-05 00:24 -13.60424 -73.22815 17427 ft 269 kts 91°
2026-05-05 00:25 -13.60489 -73.20858 17677 ft 287 kts 91°
2026-05-05 00:25 -13.60559 -73.18723 17946 ft 311 kts 91°
2026-05-05 00:25 -13.60634 -73.16420 18178 ft 334 kts 91°
2026-05-05 00:25 -13.60713 -73.13950 18343 ft 357 kts 91°
2026-05-05 00:26 -13.60794 -73.11306 18478 ft 380 kts 91°
2026-05-05 00:26 -13.60877 -73.08534 18782 ft 395 kts 91°
2026-05-05 00:26 -13.60960 -73.05685 19368 ft 401 kts 91°
2026-05-05 00:26 -13.61046 -73.02801 19992 ft 405 kts 91°
2026-05-05 00:27 -13.61133 -72.99892 20645 ft 409 kts 91°
2026-05-05 00:27 -13.61220 -72.96953 21270 ft 412 kts 91°
2026-05-05 00:27 -13.61309 -72.93991 21827 ft 416 kts 91°
2026-05-05 00:27 -13.61398 -72.91008 22398 ft 420 kts 91°
2026-05-05 00:28 -13.61486 -72.87995 22946 ft 423 kts 91°
2026-05-05 00:28 -13.61574 -72.84994 23459 ft 426 kts 91°
2026-05-05 00:28 -13.61663 -72.81898 23946 ft 429 kts 91°
2026-05-05 00:28 -13.61751 -72.78862 24421 ft 432 kts 91°
2026-05-05 00:29 -13.61843 -72.75764 24882 ft 435 kts 91°
2026-05-05 00:29 -13.61934 -72.72641 25307 ft 439 kts 91°
2026-05-05 00:29 -13.62024 -72.69487 25734 ft 443 kts 91°
2026-05-05 00:29 -13.62114 -72.66305 26152 ft 447 kts 91°
2026-05-05 00:30 -13.62204 -72.63097 26552 ft 451 kts 91°
2026-05-05 00:30 -13.62294 -72.59860 26946 ft 454 kts 91°
2026-05-05 00:30 -13.62384 -72.56593 27347 ft 458 kts 91°
2026-05-05 00:30 -13.62477 -72.53301 27740 ft 462 kts 91°
2026-05-05 00:31 -13.62568 -72.49988 28115 ft 465 kts 91°
2026-05-05 00:31 -13.62657 -72.46655 28488 ft 468 kts 90°
2026-05-05 00:31 -13.62749 -72.43286 28864 ft 472 kts 90°
2026-05-05 00:31 -13.62841 -72.39948 29215 ft 475 kts 90°
2026-05-05 00:32 -13.62936 -72.36546 29552 ft 479 kts 90°
2026-05-05 00:32 -13.63033 -72.33112 29883 ft 481 kts 90°
2026-05-05 00:32 -13.63129 -72.29654 30212 ft 484 kts 90°
2026-05-05 00:32 -13.63224 -72.26183 30551 ft 487 kts 90°
2026-05-05 00:33 -13.63315 -72.22706 31029 ft 486 kts 90°
2026-05-05 00:33 -13.63372 -72.20407 31363 ft 485 kts 90°
2026-05-05 00:33 -13.63488 -72.15779 32010 ft 484 kts 90°
2026-05-05 00:33 -13.63579 -72.12319 32501 ft 483 kts 90°
2026-05-05 00:34 -13.63640 -72.10035 32814 ft 483 kts 90°
2026-05-05 00:34 -13.63733 -72.06592 33276 ft 482 kts 90°
2026-05-05 00:34 -13.63825 -72.03144 33736 ft 482 kts 90°
2026-05-05 00:34 -13.63917 -71.99702 34208 ft 481 kts 89°
2026-05-05 00:35 -13.64007 -71.96277 34677 ft 480 kts 90°
2026-05-05 00:35 -13.64094 -71.92848 35152 ft 479 kts 90°
2026-05-05 00:35 -13.64181 -71.89424 35652 ft 478 kts 90°
2026-05-05 00:35 -13.64265 -71.86009 36130 ft 478 kts 90°
2026-05-05 00:36 -13.64347 -71.82590 36579 ft 477 kts 90°
2026-05-05 00:36 -13.64429 -71.79182 36993 ft 477 kts 90°
2026-05-05 00:36 -13.64510 -71.75783 37386 ft 476 kts 90°
2026-05-05 00:36 -13.64594 -71.72377 37494 ft 477 kts 90°
2026-05-05 00:37 -13.64681 -71.68952 37515 ft 480 kts 90°
2026-05-05 00:37 -13.64466 -71.62123 37513 ft 476 kts 78°
2026-05-05 00:38 -13.62266 -71.55823 37510 ft 470 kts 58°
2026-05-05 00:38 -13.58357 -71.50480 37504 ft 467 kts 48°
2026-05-05 00:39 -13.54193 -71.45343 37505 ft 467 kts 48°
2026-05-05 00:39 -13.50036 -71.40211 37499 ft 467 kts 48°
2026-05-05 00:40 -13.45883 -71.35074 37491 ft 467 kts 48°
2026-05-05 00:40 -13.41734 -71.29949 37484 ft 466 kts 48°
2026-05-05 00:41 -13.37583 -71.24816 37475 ft 466 kts 48°
2026-05-05 00:41 -13.33441 -71.19698 37468 ft 466 kts 48°
2026-05-05 00:42 -13.29289 -71.14580 37465 ft 466 kts 48°
2026-05-05 00:42 -13.25144 -71.09472 37446 ft 465 kts 48°
2026-05-05 00:43 -13.21035 -71.04394 37435 ft 465 kts 48°
2026-05-05 00:43 -13.16892 -70.99286 37422 ft 465 kts 48°
2026-05-05 00:44 -13.12743 -70.94189 37412 ft 465 kts 48°
2026-05-05 00:44 -13.08593 -70.89094 37398 ft 464 kts 48°
2026-05-05 00:45 -13.04466 -70.84026 37389 ft 464 kts 48°
2026-05-05 00:45 -13.00333 -70.78935 37373 ft 464 kts 48°
2026-05-05 00:46 -12.96189 -70.73851 37365 ft 465 kts 48°
2026-05-05 00:46 -12.92052 -70.68781 37338 ft 465 kts 48°
2026-05-05 00:47 -12.87956 -70.63765 37322 ft 464 kts 48°
2026-05-05 00:47 -12.83809 -70.58667 37305 ft 464 kts 48°
2026-05-05 00:48 -12.79660 -70.53579 37263 ft 464 kts 48°
2026-05-05 00:48 -12.75516 -70.48501 37250 ft 464 kts 48°
2026-05-05 00:49 -12.71369 -70.43437 37230 ft 464 kts 48°
2026-05-05 00:49 -12.67248 -70.38400 37216 ft 464 kts 48°
2026-05-05 00:50 -12.63109 -70.33340 37199 ft 464 kts 48°
2026-05-05 00:50 -12.58961 -70.28269 37166 ft 463 kts 48°
2026-05-05 00:51 -12.54849 -70.23241 37126 ft 462 kts 48°
2026-05-05 00:51 -12.50726 -70.18207 37071 ft 462 kts 48°
2026-05-05 00:52 -12.46590 -70.13165 37049 ft 462 kts 48°
2026-05-05 00:52 -12.42450 -70.08128 37029 ft 462 kts 48°
2026-05-05 00:53 -12.38319 -70.03097 37016 ft 462 kts 48°
2026-05-05 00:53 -12.34216 -69.98102 37004 ft 462 kts 48°
2026-05-05 00:54 -12.30085 -69.93070 36997 ft 462 kts 48°
2026-05-05 00:54 -12.25951 -69.88035 36990 ft 462 kts 48°
2026-05-05 00:55 -12.21805 -69.83005 36984 ft 462 kts 48°
2026-05-05 00:55 -12.17666 -69.77969 36980 ft 462 kts 48°
2026-05-05 00:56 -12.13517 -69.72927 36971 ft 462 kts 48°
2026-05-05 00:56 -12.09409 -69.67926 36968 ft 463 kts 48°
2026-05-05 00:57 -12.05257 -69.62892 36961 ft 463 kts 48°
2026-05-05 00:57 -12.01106 -69.57865 36957 ft 463 kts 48°
2026-05-05 00:58 -11.96954 -69.52844 36956 ft 462 kts 48°
2026-05-05 00:58 -11.92805 -69.47827 36955 ft 462 kts 48°
2026-05-05 00:59 -11.88660 -69.42795 36952 ft 463 kts 48°
2026-05-05 00:59 -11.84536 -69.37795 36948 ft 463 kts 48°
2026-05-05 01:00 -11.80393 -69.32788 36945 ft 462 kts 48°
2026-05-05 01:00 -11.76235 -69.27776 36944 ft 462 kts 48°
2026-05-05 01:01 -11.72077 -69.22758 36942 ft 463 kts 48°
2026-05-05 01:01 -11.67922 -69.17737 36938 ft 463 kts 48°
2026-05-05 01:02 -11.63767 -69.12708 36930 ft 463 kts 48°
2026-05-05 01:02 -11.59606 -69.07687 36907 ft 463 kts 48°
2026-05-05 01:03 -11.55440 -69.02664 36914 ft 463 kts 48°
2026-05-05 01:03 -11.51299 -68.97686 36904 ft 463 kts 48°
2026-05-05 01:04 -11.47141 -68.92679 36903 ft 463 kts 48°
2026-05-05 01:04 -11.40890 -68.85144 36899 ft 464 kts 48°
2026-05-05 01:05 -11.36721 -68.80134 36898 ft 463 kts 48°
2026-05-05 01:05 -11.32556 -68.75128 36895 ft 463 kts 48°
2026-05-05 01:06 -11.28436 -68.70175 36902 ft 464 kts 48°
2026-05-05 01:06 -11.24276 -68.65181 36900 ft 464 kts 48°
2026-05-05 01:07 -11.20102 -68.60162 36891 ft 463 kts 48°
2026-05-05 01:07 -11.15939 -68.55160 36902 ft 463 kts 48°
2026-05-05 01:08 -11.11766 -68.50153 36891 ft 463 kts 48°
2026-05-05 01:08 -11.07589 -68.45146 36529 ft 466 kts 48°
2026-05-05 01:09 -11.05529 -68.42680 35787 ft 458 kts 48°
2026-05-05 01:09 -11.03483 -68.40230 34966 ft 450 kts 48°
2026-05-05 01:09 -11.01465 -68.37811 33973 ft 448 kts 49°
2026-05-05 01:09 -10.99448 -68.35395 32981 ft 445 kts 49°
2026-05-05 01:10 -10.97440 -68.32992 31898 ft 445 kts 49°
2026-05-05 01:10 -10.95422 -68.30580 30732 ft 452 kts 49°
2026-05-05 01:10 -10.93362 -68.28118 29512 ft 461 kts 49°
2026-05-05 01:10 -10.91270 -68.25609 28276 ft 468 kts 50°
2026-05-05 01:11 -10.89150 -68.23065 27019 ft 473 kts 50°
2026-05-05 01:11 -10.87012 -68.20502 25755 ft 477 kts 50°
2026-05-05 01:11 -10.84862 -68.17930 24486 ft 479 kts 50°
2026-05-05 01:11 -10.82695 -68.15341 23192 ft 480 kts 50°
2026-05-05 01:12 -10.80527 -68.12749 22179 ft 477 kts 50°
2026-05-05 01:12 -10.78423 -68.10236 21287 ft 469 kts 50°
2026-05-05 01:12 -10.76330 -68.07735 20424 ft 461 kts 50°
2026-05-05 01:12 -10.74257 -68.05266 19579 ft 453 kts 50°
2026-05-05 01:13 -10.72226 -68.02849 18775 ft 446 kts 50°
2026-05-05 01:13 -10.70233 -68.00475 17990 ft 438 kts 50°
2026-05-05 01:13 -10.68250 -67.98156 17263 ft 431 kts 47°
2026-05-05 01:13 -10.65944 -67.96241 16580 ft 426 kts 33°
2026-05-05 01:14 -10.63293 -67.94945 15899 ft 422 kts 20°
2026-05-05 01:14 -10.60445 -67.94318 15232 ft 419 kts
2026-05-05 01:14 -10.57545 -67.94376 14569 ft 417 kts 353°
2026-05-05 01:14 -10.54693 -67.94818 13891 ft 413 kts 352°
2026-05-05 01:15 -10.51859 -67.95260 13182 ft 410 kts 352°
2026-05-05 01:15 -10.49041 -67.95696 12427 ft 407 kts 352°
2026-05-05 01:15 -10.46291 -67.96115 11661 ft 403 kts 352°
2026-05-05 01:15 -10.43500 -67.96534 10962 ft 397 kts 352°
2026-05-05 01:16 -10.40835 -67.96932 10810 ft 376 kts 352°
2026-05-05 01:16 -10.38308 -67.97311 10676 ft 357 kts 352°
2026-05-05 01:16 -10.35908 -67.97672 10550 ft 340 kts 352°
2026-05-05 01:16 -10.33654 -67.98010 10433 ft 326 kts 352°
2026-05-05 01:17 -10.31456 -67.98341 10303 ft 313 kts 352°
2026-05-05 01:17 -10.29313 -67.98663 10170 ft 302 kts 352°
2026-05-05 01:17 -10.27279 -67.98971 9916 ft 296 kts 352°
2026-05-05 01:17 -10.25248 -67.99281 9783 ft 294 kts 352°
2026-05-05 01:18 -10.23225 -67.99589 9573 ft 295 kts 352°
2026-05-05 01:18 -10.21176 -67.99897 9064 ft 297 kts 353°
2026-05-05 01:18 -10.19141 -68.00204 8704 ft 295 kts 353°
2026-05-05 01:18 -10.17116 -68.00510 8268 ft 292 kts 353°
2026-05-05 01:19 -10.15120 -68.00812 7645 ft 289 kts 353°
2026-05-05 01:19 -10.13138 -68.01111 7022 ft 286 kts 353°
2026-05-05 01:19 -10.11180 -68.01406 6401 ft 283 kts 353°
2026-05-05 01:19 -10.09244 -68.01701 5779 ft 279 kts 353°
2026-05-05 01:20 -10.07329 -68.01993 5129 ft 278 kts 352°
2026-05-05 01:20 -10.05440 -68.02308 4636 ft 270 kts 349°
2026-05-05 01:20 -10.03665 -68.02690 4462 ft 251 kts 347°
2026-05-05 01:20 -10.02047 -68.03073 4342 ft 232 kts 347°
2026-05-05 01:21 -10.00514 -68.03443 4237 ft 216 kts 347°
2026-05-05 01:21 -9.99119 -68.03776 4163 ft 201 kts 347°
2026-05-05 01:21 -9.97742 -68.03845 3870 ft 198 kts
2026-05-05 01:21 -9.96461 -68.03426 3667 ft 190 kts 26°
2026-05-05 01:22 -9.95437 -68.02623 3467 ft 181 kts 45°
2026-05-05 01:22 -9.94745 -68.01639 3255 ft 164 kts 55°
2026-05-05 01:22 -9.94149 -68.00707 3045 ft 151 kts 55°
2026-05-05 01:22 -9.93780 -68.00130 2915 ft 144 kts 54°
2026-05-05 01:23 -9.93248 -67.99300 2732 ft 137 kts 54°
2026-05-05 01:23 -9.92733 -67.98496 2552 ft 135 kts 54°
2026-05-05 01:23 -9.92231 -67.97712 2382 ft 133 kts 55°
2026-05-05 01:23 -9.91728 -67.96927 2205 ft 132 kts 55°
2026-05-05 01:24 -9.91228 -67.96147 2035 ft 132 kts 55°
2026-05-05 01:24 -9.90732 -67.95372 1855 ft 131 kts 56°
2026-05-05 01:24 -9.90237 -67.94599 1680 ft 130 kts 56°
2026-05-05 01:24 -9.89743 -67.93829 1507 ft 130 kts 56°
2026-05-05 01:25 -9.89255 -67.93064 1333 ft 129 kts 56°
2026-05-05 01:25 -9.88765 -67.92301 1123 ft 129 kts 56°
2026-05-05 01:25 -9.88281 -67.91539 923 ft 128 kts 56°
2026-05-05 01:25 -9.87797 -67.90789 806 ft 127 kts 57°
2026-05-05 01:26 -9.87316 -67.90035 643 ft 127 kts 56°
2026-05-05 01:26 -9.86930 -67.89433 634 ft 50 kts 57°
2026-05-05 01:26 -9.86834 -67.89287 636 ft 15 kts 55°
2026-05-05 01:26 -9.86771 -67.89282 637 ft 9 kts 286°
2026-05-05 01:27 -9.86756 -67.89344 635 ft 10 kts 280°
2026-05-05 01:27 -9.86745 -67.89416 639 ft 10 kts 290°
2026-05-05 01:27 -9.86727 -67.89482 636 ft 8 kts 280°
2026-05-05 01:27 -9.86725 -67.89491 636 ft 0 kts 280°
2026-05-05 01:28 -9.86722 -67.89510 636 ft 10 kts 282°
2026-05-05 01:28 -9.86707 -67.89575 636 ft 11 kts 268°
2026-05-05 01:28 -9.86742 -67.89638 638 ft 8 kts 237°
2026-05-05 01:29 -9.86736 -67.89665 636 ft 1 kts 327°
2026-05-05 01:29 -9.86713 -67.89677 640 ft 4 kts 328°
2026-05-05 01:29 -9.86702 -67.89684 643 ft 0 kts 331°